Regional Weather Roundup
Issued by NWS State College, PA

Home | Current Version | Previous Version | Graphics & Text | Print | Product List | Glossary Off
Versions: 1 2 3 4 5 6 7 8 9 10 11 12 13 14 15 16 17 18 19 20 21 22 23 24 25 26 27 28 29 30 31 32 33 34 35 36 37 38 39 40 41 42 43 44 45 46 47 48 49 50

000
ASUS41 KCTP 251210
RWRCTP

REGIONAL WEATHER ROUNDUP
NATIONAL WEATHER SERVICE STATE COLLEGE PA
800 AM EDT SAT APR 25 2015

Note: "fair" indicates few or no clouds below 12,000 feet with no
significant weather and/or obstructions to visibility.

* = STATION THAT DOES NOT REPORT PRECIPITATION /E.G. RAIN...SNOW...ETC/
    THUNDER OR FOG.

PAZ002>004-007>009-013>016-020>023-029>032-251300-
WESTERN PENNSYLVANIA

CITY           SKY/WX    TMP DP  RH WIND       PRES   REMARKS
ERIE           CLOUDY    35  27  72 E3        29.98F
MEADVILLE      CLOUDY    35  23  61 CALM      29.93F
FRANKLIN*      CLOUDY    34  18  51 CALM      29.95F
NEW CASTLE     PTSUNNY   37  31  79 CALM      29.95F
BEAVER COUNTY  NOT AVBL
BUTLER*        CLOUDY    37  23  56 CALM      29.95F
PITTSBURGH INT LGT SNOW  33  32  96 S5        29.94F FOG
PITTSBURGH     CLOUDY    33  29  85 S7        29.94F FOG
INDIANA*       CLOUDY    36  21  55 CALM      29.97F
LATROBE        LGT SNOW  34  34 100 CALM      29.98F
WASHINGTON CO* CLOUDY    37  28  70 E7        29.98R
$$

PAZ004>006-010>012-017>019-024>028-033>037-041-042-045-046-049>053-251300-
CENTRAL PENNSYLVANIA

CITY           SKY/WX    TMP DP  RH WIND       PRES   REMARKS
BRADFORD       CLOUDY    29  20  69 CALM      29.91F
DUBOIS         CLOUDY    33  20  58 SW5       29.92F
CLEARFIELD     CLOUDY    31  21  66 S3        29.94F
JOHNSTOWN      CLOUDY    33  20  58 SW9       29.91F
ALTOONA        CLOUDY    36  20  52 SW5       29.96R
STATE COLLEGE  CLOUDY    34  23  64 CALM      29.95S
WILLIAMSPORT   PTSUNNY   37  24  59 W6        29.97S
SELINSGROVE    PTSUNNY   36  29  75 NW3       29.97S
FT INDIANTOWN  CLOUDY    39  19  44 VRB6      29.96R
CAPITAL CITY   CLOUDY    39  20  46 W6        29.98R
HARRISBURG     CLOUDY    41  21  44 W7        29.97R
YORK           CLOUDY    39  25  57 CALM      29.98R
$$

PAZ038>040-043-044-047-048-054-055-060>062-067>071-251300-
EASTERN PENNSYLVANIA

CITY           SKY/WX    TMP DP  RH WIND       PRES   REMARKS
SCRANTON       SUNNY     37  22  54 N6        29.91F
MOUNT POCONO   SUNNY     31  21  66 NW10      29.86S
ALLENTOWN      SUNNY     40  24  53 NW5       29.94F
QUAKERTOWN*    MOSUNNY   39  23  52 NW5       29.94F
READING        PTSUNNY   41  23  48 NW9       29.95F
LANCASTER      CLOUDY    37  26  64 W6        29.96S
COATESVILLE    CLOUDY    39  23  52 NW8       29.94F
POTTSTOWN      PTSUNNY   39  23  52 W7        29.96F
BLUE BELL      MOSUNNY   41  27  56 NW3       29.94F
DOYLESTOWN     MOSUNNY   38  23  55 NW7       29.93F
WILLOW GROVE   NOT AVBL
NORTH PHILA    MOSUNNY   44  21  40 NW12      29.96F
PHILADELPHIA   PTSUNNY   43  21  41 NW12      29.96F
$$



USA.gov is the U.S. government's official web portal to all federal, state and local government web resources and services.